contact:dominique.lefevre@mio.osupytheas.fr, maurice.libes@osupytheas.fr, didier.mallarino@osupytheas.fr
Project:EMSO http://www.emso-fr.org/EMSO-France
Depth: 2436.0 m
Title:EMSO Ligure Ouest : Data MII capteur CSTAR
DateTime,Latitude,Longitude,Instrument_Serial,Reference_Counts,Signal_Counts,Corrected_Signal_raw_counts,Calculated_Beam_c_inverse_meters,Internal_thermistor_counts
DateTime,Latitude,Longitude,Instrument_Serial,Reference_Counts,Signal_Counts,Corrected_Signal_raw_counts,Calculated_Beam_c_inverse_meters,Internal_thermistor_counts
2019-05-22T00:00:52,42.805,6.029,CST-1368DR,9428,13197,15590,0.007,551
2019-05-22T00:03:54,42.805,6.029,CST-1368DR,9428,13197,15590,0.007,551
2019-05-22T00:06:55,42.805,6.029,CST-1368DR,9428,13198,15592,0.006,551
2019-05-22T00:09:57,42.805,6.029,CST-1368DR,9428,13197,15590,0.007,551
2019-05-22T00:12:58,42.805,6.029,CST-1368DR,9428,13197,15590,0.007,551
2019-05-22T00:15:59,42.805,6.029,CST-1368DR,9428,13198,15591,0.006,550
2019-05-22T00:19:01,42.805,6.029,CST-1368DR,9428,13199,15592,0.006,551
2019-05-22T00:22:02,42.805,6.029,CST-1368DR,9428,13197,15590,0.007,551
2019-05-22T00:25:04,42.805,6.029,CST-1368DR,9428,13198,15591,0.006,551
2019-05-22T00:28:05,42.805,6.029,CST-1368DR,9427,13193,15586,0.008,551
2019-05-22T00:31:06,42.805,6.029,CST-1368DR,9427,13197,15591,0.006,551
2019-05-22T00:34:08,42.805,6.029,CST-1368DR,9427,13194,15588,0.007,551
2019-05-22T00:37:09,42.805,6.029,CST-1368DR,9427,13198,15593,0.006,551
2019-05-22T00:40:11,42.805,6.029,CST-1368DR,9427,13195,15589,0.007,551
2019-05-22T00:43:12,42.805,6.029,CST-1368DR,9427,13197,15591,0.006,551
2019-05-22T00:46:13,42.805,6.029,CST-1368DR,9427,13195,15590,0.007,551
2019-05-22T00:49:15,42.805,6.029,CST-1368DR,9427,13197,15592,0.006,551
2019-05-22T00:52:16,42.805,6.029,CST-1368DR,9427,13198,15593,0.006,551
2019-05-22T00:55:18,42.805,6.029,CST-1368DR,9427,13193,15587,0.007,551
2019-05-22T00:58:19,42.805,6.029,CST-1368DR,9427,13197,15592,0.006,550
2019-05-22T01:01:20,42.805,6.029,CST-1368DR,9427,13197,15592,0.006,550
2019-05-22T01:04:22,42.805,6.029,CST-1368DR,9427,13195,15590,0.007,551
2019-05-22T01:07:23,42.805,6.029,CST-1368DR,9427,13197,15592,0.006,551
2019-05-22T01:10:25,42.805,6.029,CST-1368DR,9427,13197,15592,0.006,551
2019-05-22T01:13:26,42.805,6.029,CST-1368DR,9427,13197,15591,0.006,550
2019-05-22T01:16:28,42.805,6.029,CST-1368DR,9427,13195,15589,0.007,551
2019-05-22T01:19:29,42.805,6.029,CST-1368DR,9427,13195,15589,0.007,551
2019-05-22T01:22:30,42.805,6.029,CST-1368DR,9427,13191,15584,0.008,551
2019-05-22T01:25:32,42.805,6.029,CST-1368DR,9427,13196,15591,0.006,551
2019-05-22T01:28:33,42.805,6.029,CST-1368DR,9427,13197,15591,0.006,551
2019-05-22T01:31:35,42.805,6.029,CST-1368DR,9427,13197,15592,0.006,551
2019-05-22T01:34:36,42.805,6.029,CST-1368DR,9427,13197,15592,0.006,551
2019-05-22T01:37:37,42.805,6.029,CST-1368DR,9427,13195,15589,0.007,551
2019-05-22T01:40:39,42.805,6.029,CST-1368DR,9427,13197,15592,0.006,551
2019-05-22T01:43:40,42.805,6.029,CST-1368DR,9427,13195,15589,0.007,551
2019-05-22T01:46:42,42.805,6.029,CST-1368DR,9427,13196,15590,0.007,551
2019-05-22T01:49:43,42.805,6.029,CST-1368DR,9426,13196,15592,0.006,551
2019-05-22T01:52:44,42.805,6.029,CST-1368DR,9426,13196,15592,0.006,551
2019-05-22T01:55:46,42.805,6.029,CST-1368DR,9426,13195,15591,0.006,551
2019-05-22T01:58:47,42.805,6.029,CST-1368DR,9426,13196,15592,0.006,551
2019-05-22T02:01:49,42.805,6.029,CST-1368DR,9426,13196,15592,0.006,551
2019-05-22T02:04:50,42.805,6.029,CST-1368DR,9426,13196,15592,0.006,551
2019-05-22T02:07:51,42.805,6.029,CST-1368DR,9426,13196,15592,0.006,550
2019-05-22T02:10:53,42.805,6.029,CST-1368DR,9426,13193,15589,0.007,551
2019-05-22T02:13:54,42.805,6.029,CST-1368DR,9426,13196,15592,0.006,551
2019-05-22T02:16:56,42.805,6.029,CST-1368DR,9426,13195,15591,0.006,551
2019-05-22T02:19:57,42.805,6.029,CST-1368DR,9426,13195,15590,0.007,551
2019-05-22T02:22:59,42.805,6.029,CST-1368DR,9426,13195,15591,0.006,550
2019-05-22T02:26:00,42.805,6.029,CST-1368DR,9426,13195,15591,0.006,551
2019-05-22T02:29:01,42.805,6.029,CST-1368DR,9426,13194,15590,0.007,551
2019-05-22T02:32:03,42.805,6.029,CST-1368DR,9426,13195,15591,0.006,550
2019-05-22T02:35:04,42.805,6.029,CST-1368DR,9426,13196,15592,0.006,551
2019-05-22T02:38:06,42.805,6.029,CST-1368DR,9426,13194,15589,0.007,551
2019-05-22T02:41:07,42.805,6.029,CST-1368DR,9426,13194,15589,0.007,551
2019-05-22T02:44:08,42.805,6.029,CST-1368DR,9426,13195,15591,0.006,551
2019-05-22T02:47:10,42.805,6.029,CST-1368DR,9426,13195,15591,0.006,551
2019-05-22T02:50:11,42.805,6.029,CST-1368DR,9426,13194,15590,0.007,551
2019-05-22T02:53:13,42.805,6.029,CST-1368DR,9426,13195,15590,0.007,551
2019-05-22T02:56:14,42.805,6.029,CST-1368DR,9426,13190,15585,0.008,551
2019-05-22T02:59:15,42.805,6.029,CST-1368DR,9426,13195,15590,0.007,551
2019-05-22T03:02:17,42.805,6.029,CST-1368DR,9426,13194,15589,0.007,551
2019-05-22T03:05:18,42.805,6.029,CST-1368DR,9426,13195,15591,0.006,551
2019-05-22T03:08:20,42.805,6.029,CST-1368DR,9426,13191,15586,0.008,551
2019-05-22T03:11:21,42.805,6.029,CST-1368DR,9426,13196,15592,0.006,551
2019-05-22T03:14:23,42.805,6.029,CST-1368DR,9425,13194,15591,0.006,551
2019-05-22T03:17:24,42.805,6.029,CST-1368DR,9425,13186,15582,0.009,551
2019-05-22T03:20:25,42.805,6.029,CST-1368DR,9425,13194,15591,0.006,551
2019-05-22T03:23:27,42.805,6.029,CST-1368DR,9425,13194,15591,0.006,551
2019-05-22T03:26:28,42.805,6.029,CST-1368DR,9426,13196,15592,0.006,551
2019-05-22T03:29:30,42.805,6.029,CST-1368DR,9425,13194,15591,0.006,551
2019-05-22T03:32:31,42.805,6.029,CST-1368DR,9425,13194,15591,0.006,551
2019-05-22T03:35:32,42.805,6.029,CST-1368DR,9425,13194,15591,0.006,551
2019-05-22T03:38:34,42.805,6.029,CST-1368DR,9425,13195,15592,0.006,551
2019-05-22T03:41:35,42.805,6.029,CST-1368DR,9425,13194,15591,0.006,550
2019-05-22T03:44:37,42.805,6.029,CST-1368DR,9425,13194,15591,0.006,551
2019-05-22T03:47:38,42.805,6.029,CST-1368DR,9425,13194,15591,0.006,551
2019-05-22T03:50:39,42.805,6.029,CST-1368DR,9425,13195,15592,0.006,551
2019-05-22T03:53:41,42.805,6.029,CST-1368DR,9425,13194,15591,0.006,551
2019-05-22T03:56:42,42.805,6.029,CST-1368DR,9425,13193,15589,0.007,550
2019-05-22T03:59:44,42.805,6.029,CST-1368DR,9425,13193,15590,0.007,551
2019-05-22T04:02:45,42.805,6.029,CST-1368DR,9425,13194,15591,0.006,551
2019-05-22T04:05:46,42.805,6.029,CST-1368DR,9425,13193,15590,0.007,551
2019-05-22T04:08:48,42.805,6.029,CST-1368DR,9425,13192,15588,0.007,551
2019-05-22T04:11:49,42.805,6.029,CST-1368DR,9425,13192,15588,0.007,551
2019-05-22T04:14:51,42.805,6.029,CST-1368DR,9425,13194,15591,0.006,551
2019-05-22T04:17:52,42.805,6.029,CST-1368DR,9425,13193,15590,0.007,551
2019-05-22T04:20:54,42.805,6.029,CST-1368DR,9425,13190,15586,0.008,551
2019-05-22T04:23:55,42.805,6.029,CST-1368DR,9425,13193,15589,0.007,550
2019-05-22T04:26:56,42.805,6.029,CST-1368DR,9425,13193,15589,0.007,551
2019-05-22T04:29:58,42.805,6.029,CST-1368DR,9424,13193,15591,0.006,551
2019-05-22T04:32:59,42.805,6.029,CST-1368DR,9424,13191,15589,0.007,551
2019-05-22T04:36:01,42.805,6.029,CST-1368DR,9424,13193,15591,0.006,551
2019-05-22T04:39:02,42.805,6.029,CST-1368DR,9424,13193,15591,0.006,551
2019-05-22T04:42:03,42.805,6.029,CST-1368DR,9424,13192,15590,0.007,551
2019-05-22T04:45:05,42.805,6.029,CST-1368DR,9424,13191,15589,0.007,551
2019-05-22T04:48:06,42.805,6.029,CST-1368DR,9424,13192,15590,0.007,551
2019-05-22T04:51:08,42.805,6.029,CST-1368DR,9424,13191,15589,0.007,551
2019-05-22T04:54:09,42.805,6.029,CST-1368DR,9424,13192,15590,0.007,551
2019-05-22T04:57:10,42.805,6.029,CST-1368DR,9424,13193,15592,0.006,551
2019-05-22T05:00:12,42.805,6.029,CST-1368DR,9424,13191,15589,0.007,551
2019-05-22T05:03:13,42.805,6.029,CST-1368DR,9424,13192,15590,0.007,551
2019-05-22T05:06:15,42.805,6.029,CST-1368DR,9424,13193,15591,0.006,551
2019-05-22T05:09:16,42.805,6.029,CST-1368DR,9424,13192,15590,0.007,551
2019-05-22T05:12:18,42.805,6.029,CST-1368DR,9424,13193,15592,0.006,551
2019-05-22T05:15:19,42.805,6.029,CST-1368DR,9424,13192,15590,0.007,551
2019-05-22T05:18:20,42.805,6.029,CST-1368DR,9424,13191,15589,0.007,551
2019-05-22T05:21:22,42.805,6.029,CST-1368DR,9424,13192,15590,0.007,551
2019-05-22T05:24:23,42.805,6.029,CST-1368DR,9424,13192,15590,0.007,550
2019-05-22T05:27:25,42.805,6.029,CST-1368DR,9424,13191,15589,0.007,551
2019-05-22T05:30:26,42.805,6.029,CST-1368DR,9424,13189,15587,0.007,551
2019-05-22T05:33:27,42.805,6.029,CST-1368DR,9424,13190,15588,0.007,550
2019-05-22T05:36:29,42.805,6.029,CST-1368DR,9424,13191,15589,0.007,551
2019-05-22T05:39:30,42.805,6.029,CST-1368DR,9423,13191,15590,0.007,551
2019-05-22T05:42:32,42.805,6.029,CST-1368DR,9423,13192,15591,0.006,551
2019-05-22T05:45:33,42.805,6.029,CST-1368DR,9423,13193,15592,0.006,551
2019-05-22T05:48:34,42.805,6.029,CST-1368DR,9423,13192,15592,0.006,551
2019-05-22T05:51:36,42.805,6.029,CST-1368DR,9423,13190,15590,0.007,551
2019-05-22T05:54:37,42.805,6.029,CST-1368DR,9423,13191,15591,0.006,551
2019-05-22T05:57:39,42.805,6.029,CST-1368DR,9423,13192,15591,0.006,550
2019-05-22T06:00:40,42.805,6.029,CST-1368DR,9423,13191,15591,0.006,551
2019-05-22T06:03:41,42.805,6.029,CST-1368DR,9423,13190,15590,0.007,551
2019-05-22T06:06:43,42.805,6.029,CST-1368DR,9423,13191,15591,0.006,550
2019-05-22T06:09:44,42.805,6.029,CST-1368DR,9423,13190,15590,0.007,551
2019-05-22T06:12:46,42.805,6.029,CST-1368DR,9423,13191,15590,0.007,551
2019-05-22T06:15:47,42.805,6.029,CST-1368DR,9423,13192,15592,0.006,551
2019-05-22T06:18:49,42.805,6.029,CST-1368DR,9423,13190,15590,0.007,551
2019-05-22T06:21:50,42.805,6.029,CST-1368DR,9423,13191,15591,0.006,550
2019-05-22T06:24:51,42.805,6.029,CST-1368DR,9423,13191,15590,0.007,551
2019-05-22T06:27:53,42.805,6.029,CST-1368DR,9423,13192,15591,0.006,550
2019-05-22T06:30:54,42.805,6.029,CST-1368DR,9423,13191,15590,0.007,551
2019-05-22T06:33:56,42.805,6.029,CST-1368DR,9423,13190,15590,0.007,551
2019-05-22T06:36:57,42.805,6.029,CST-1368DR,9423,13189,15588,0.007,551
2019-05-22T06:39:58,42.805,6.029,CST-1368DR,9423,13191,15591,0.006,551
2019-05-22T06:43:00,42.805,6.029,CST-1368DR,9423,13190,15589,0.007,551
2019-05-22T06:46:01,42.805,6.029,CST-1368DR,9423,13191,15590,0.007,550
2019-05-22T06:49:03,42.805,6.029,CST-1368DR,9423,13192,15591,0.006,551
2019-05-22T06:52:04,42.805,6.029,CST-1368DR,9423,13187,15586,0.008,551
2019-05-22T06:55:05,42.805,6.029,CST-1368DR,9423,13191,15590,0.007,551
2019-05-22T06:58:07,42.805,6.029,CST-1368DR,9423,13191,15591,0.006,551
2019-05-22T07:01:08,42.805,6.029,CST-1368DR,9423,13191,15590,0.007,551
2019-05-22T07:04:10,42.805,6.029,CST-1368DR,9423,13190,15590,0.007,551
2019-05-22T07:07:11,42.805,6.029,CST-1368DR,9422,13188,15588,0.007,551
2019-05-22T07:10:13,42.805,6.029,CST-1368DR,9422,13190,15590,0.007,551
2019-05-22T07:13:14,42.805,6.029,CST-1368DR,9422,13190,15591,0.006,550
2019-05-22T07:16:15,42.805,6.029,CST-1368DR,9422,13187,15587,0.007,551
2019-05-22T07:19:17,42.805,6.029,CST-1368DR,9422,13190,15591,0.006,550
2019-05-22T07:22:18,42.805,6.029,CST-1368DR,9422,13185,15585,0.008,551
2019-05-22T07:25:20,42.805,6.029,CST-1368DR,9422,13190,15590,0.007,551
2019-05-22T07:28:21,42.805,6.029,CST-1368DR,9422,13189,15589,0.007,550
2019-05-22T07:31:22,42.805,6.029,CST-1368DR,9422,13190,15591,0.006,551
2019-05-22T07:34:24,42.805,6.029,CST-1368DR,9422,13190,15591,0.006,550
2019-05-22T07:37:25,42.805,6.029,CST-1368DR,9422,13189,15590,0.007,551
2019-05-22T07:40:27,42.805,6.029,CST-1368DR,9422,13190,15591,0.006,551
2019-05-22T07:43:28,42.805,6.029,CST-1368DR,9422,13189,15590,0.007,551
2019-05-22T07:46:29,42.805,6.029,CST-1368DR,9422,13190,15591,0.006,551
2019-05-22T07:49:31,42.805,6.029,CST-1368DR,9422,13190,15591,0.006,551
2019-05-22T07:52:32,42.805,6.029,CST-1368DR,9422,13185,15584,0.008,551
2019-05-22T07:55:34,42.805,6.029,CST-1368DR,9422,13189,15590,0.007,551
2019-05-22T07:58:35,42.805,6.029,CST-1368DR,9421,13184,15585,0.008,551
2019-05-22T08:01:36,42.805,6.029,CST-1368DR,9422,13189,15589,0.007,551
2019-05-22T08:04:38,42.805,6.029,CST-1368DR,9421,13190,15592,0.006,551
2019-05-22T08:07:39,42.805,6.029,CST-1368DR,9421,13189,15591,0.006,551
2019-05-22T08:10:41,42.805,6.029,CST-1368DR,9421,13188,15590,0.007,551
2019-05-22T08:13:42,42.805,6.029,CST-1368DR,9421,13189,15591,0.006,551
2019-05-22T08:16:44,42.805,6.029,CST-1368DR,9421,13189,15592,0.006,550
2019-05-22T08:19:45,42.805,6.029,CST-1368DR,9421,13188,15590,0.007,551
2019-05-22T08:22:46,42.805,6.029,CST-1368DR,9421,13189,15591,0.006,551
2019-05-22T08:25:48,42.805,6.029,CST-1368DR,9421,13190,15592,0.006,551
2019-05-22T08:28:49,42.805,6.029,CST-1368DR,9421,13189,15592,0.006,551
2019-05-22T08:31:51,42.805,6.029,CST-1368DR,9421,13182,15583,0.008,551
2019-05-22T08:34:52,42.805,6.029,CST-1368DR,9421,13188,15590,0.007,551
2019-05-22T08:37:53,42.805,6.029,CST-1368DR,9421,13187,15589,0.007,550
2019-05-22T08:40:55,42.805,6.029,CST-1368DR,9421,13188,15590,0.007,551
2019-05-22T08:43:56,42.805,6.029,CST-1368DR,9421,13189,15592,0.006,551
2019-05-22T08:46:58,42.805,6.029,CST-1368DR,9421,13189,15591,0.006,551
2019-05-22T08:49:59,42.805,6.029,CST-1368DR,9421,13189,15592,0.006,551
2019-05-22T08:53:00,42.805,6.029,CST-1368DR,9421,13188,15590,0.007,551
2019-05-22T08:56:02,42.805,6.029,CST-1368DR,9421,13188,15590,0.007,551
2019-05-22T08:59:03,42.805,6.029,CST-1368DR,9421,13189,15591,0.006,551
2019-05-22T09:02:05,42.805,6.029,CST-1368DR,9421,13188,15590,0.007,551
2019-05-22T09:05:06,42.805,6.029,CST-1368DR,9421,13188,15590,0.007,551
2019-05-22T09:08:08,42.805,6.029,CST-1368DR,9421,13188,15590,0.007,550
2019-05-22T09:11:09,42.805,6.029,CST-1368DR,9421,13187,15589,0.007,551
2019-05-22T09:14:10,42.805,6.029,CST-1368DR,9421,13187,15589,0.007,550
2019-05-22T09:17:12,42.805,6.029,CST-1368DR,9421,13187,15589,0.007,551
2019-05-22T09:20:13,42.805,6.029,CST-1368DR,9421,13186,15588,0.007,551
2019-05-22T09:23:15,42.805,6.029,CST-1368DR,9421,13187,15588,0.007,551
2019-05-22T09:26:16,42.805,6.029,CST-1368DR,9421,13188,15590,0.007,551
2019-05-22T09:29:17,42.805,6.029,CST-1368DR,9420,13188,15592,0.006,551
2019-05-22T09:32:19,42.805,6.029,CST-1368DR,9420,13187,15591,0.006,550
2019-05-22T09:35:20,42.805,6.029,CST-1368DR,9420,13187,15590,0.007,551
2019-05-22T09:38:22,42.805,6.029,CST-1368DR,9420,13184,15587,0.007,551
2019-05-22T09:41:23,42.805,6.029,CST-1368DR,9420,13185,15588,0.007,551
2019-05-22T09:44:24,42.805,6.029,CST-1368DR,9420,13187,15590,0.007,551
2019-05-22T09:47:26,42.805,6.029,CST-1368DR,9420,13186,15590,0.007,551
2019-05-22T09:50:27,42.805,6.029,CST-1368DR,9420,13183,15585,0.008,551
2019-05-22T09:53:29,42.805,6.029,CST-1368DR,9420,13187,15590,0.007,551
2019-05-22T09:56:30,42.805,6.029,CST-1368DR,9420,13187,15590,0.007,551
2019-05-22T09:59:31,42.805,6.029,CST-1368DR,9420,13185,15587,0.007,551
2019-05-22T10:02:33,42.805,6.029,CST-1368DR,9420,13186,15590,0.007,551
2019-05-22T10:05:34,42.805,6.029,CST-1368DR,9420,13187,15590,0.007,551
2019-05-22T10:08:36,42.805,6.029,CST-1368DR,9420,13185,15588,0.007,551
2019-05-22T10:11:37,42.805,6.029,CST-1368DR,9420,13185,15588,0.007,551
2019-05-22T10:14:39,42.805,6.029,CST-1368DR,9420,13188,15591,0.006,551
2019-05-22T10:17:40,42.805,6.029,CST-1368DR,9420,13187,15590,0.007,551
2019-05-22T10:20:41,42.805,6.029,CST-1368DR,9420,13187,15591,0.006,551
2019-05-22T10:23:43,42.805,6.029,CST-1368DR,9420,13185,15588,0.007,551
2019-05-22T10:26:44,42.805,6.029,CST-1368DR,9420,13187,15590,0.007,551
2019-05-22T10:29:46,42.805,6.029,CST-1368DR,9419,13183,15587,0.007,551
2019-05-22T10:32:47,42.805,6.029,CST-1368DR,9419,13185,15590,0.007,551
2019-05-22T10:35:48,42.805,6.029,CST-1368DR,9419,13187,15591,0.006,551
2019-05-22T10:38:50,42.805,6.029,CST-1368DR,9419,13187,15592,0.006,551
2019-05-22T10:41:51,42.805,6.029,CST-1368DR,9419,13187,15591,0.006,551
2019-05-22T10:44:53,42.805,6.029,CST-1368DR,9420,13187,15590,0.007,551
2019-05-22T10:47:54,42.805,6.029,CST-1368DR,9419,13187,15592,0.006,551
2019-05-22T10:50:55,42.805,6.029,CST-1368DR,9420,13186,15589,0.007,551
2019-05-22T10:53:57,42.805,6.029,CST-1368DR,9420,13186,15589,0.007,551
2019-05-22T10:56:58,42.805,6.029,CST-1368DR,9419,13186,15591,0.006,551
2019-05-22T11:00:00,42.805,6.029,CST-1368DR,9419,13185,15590,0.007,551
2019-05-22T11:03:01,42.805,6.029,CST-1368DR,9419,13186,15590,0.007,551
2019-05-22T11:06:02,42.805,6.029,CST-1368DR,9419,13187,15592,0.006,551
2019-05-22T11:09:04,42.805,6.029,CST-1368DR,9419,13186,15591,0.006,551
2019-05-22T11:12:05,42.805,6.029,CST-1368DR,9419,13187,15591,0.006,550
2019-05-22T11:15:07,42.805,6.029,CST-1368DR,9419,13185,15589,0.007,551
2019-05-22T11:18:08,42.805,6.029,CST-1368DR,9419,13187,15591,0.006,551
2019-05-22T11:21:10,42.805,6.029,CST-1368DR,9419,13184,15588,0.007,551
2019-05-22T11:24:11,42.805,6.029,CST-1368DR,9419,13185,15590,0.007,550
2019-05-22T11:27:12,42.805,6.029,CST-1368DR,9419,13186,15590,0.007,551
2019-05-22T11:30:14,42.805,6.029,CST-1368DR,9419,13185,15590,0.007,550
2019-05-22T11:33:15,42.805,6.029,CST-1368DR,9419,13184,15589,0.007,551
2019-05-22T11:36:17,42.805,6.029,CST-1368DR,9419,13185,15590,0.007,550
2019-05-22T11:39:18,42.805,6.029,CST-1368DR,9419,13186,15591,0.006,551
2019-05-22T11:42:19,42.805,6.029,CST-1368DR,9419,13184,15588,0.007,551
2019-05-22T11:45:21,42.805,6.029,CST-1368DR,9419,13185,15589,0.007,551
2019-05-22T11:48:22,42.805,6.029,CST-1368DR,9418,13185,15591,0.006,551
2019-05-22T11:51:24,42.805,6.029,CST-1368DR,9418,13184,15590,0.007,551
2019-05-22T11:54:25,42.805,6.029,CST-1368DR,9418,13185,15591,0.006,551
2019-05-22T11:57:26,42.805,6.029,CST-1368DR,9419,13183,15587,0.007,551
2019-05-22T12:00:28,42.805,6.029,CST-1368DR,9418,13184,15590,0.007,551
2019-05-22T12:03:29,42.805,6.029,CST-1368DR,9418,13185,15591,0.006,551
2019-05-22T12:06:31,42.805,6.029,CST-1368DR,9418,13184,15590,0.007,551
2019-05-22T12:09:32,42.805,6.029,CST-1368DR,9418,13184,15590,0.007,551
2019-05-22T12:12:33,42.805,6.029,CST-1368DR,9418,13184,15590,0.007,551
2019-05-22T12:15:35,42.805,6.029,CST-1368DR,9418,13184,15590,0.007,551
2019-05-22T12:18:36,42.805,6.029,CST-1368DR,9418,13183,15589,0.007,550
2019-05-22T12:21:38,42.805,6.029,CST-1368DR,9418,13183,15588,0.007,551
2019-05-22T12:24:39,42.805,6.029,CST-1368DR,9418,13184,15590,0.007,550
2019-05-22T12:27:41,42.805,6.029,CST-1368DR,9418,13185,15590,0.007,551
2019-05-22T12:30:42,42.805,6.029,CST-1368DR,9418,13180,15585,0.008,550
2019-05-22T12:33:43,42.805,6.029,CST-1368DR,9418,13185,15590,0.007,551
2019-05-22T12:36:45,42.805,6.029,CST-1368DR,9418,13184,15589,0.007,551
2019-05-22T12:39:46,42.805,6.029,CST-1368DR,9418,13184,15589,0.007,551
2019-05-22T12:42:48,42.805,6.029,CST-1368DR,9418,13181,15587,0.007,551
2019-05-22T12:45:49,42.805,6.029,CST-1368DR,9417,13184,15592,0.006,551
2019-05-22T12:48:50,42.805,6.029,CST-1368DR,9417,13184,15591,0.006,551
2019-05-22T12:51:52,42.805,6.029,CST-1368DR,9417,13184,15591,0.006,551
2019-05-22T12:54:53,42.805,6.029,CST-1368DR,9417,13183,15591,0.006,550
2019-05-22T12:57:55,42.805,6.029,CST-1368DR,9417,13181,15588,0.007,550
2019-05-22T13:00:56,42.805,6.029,CST-1368DR,9417,13183,15590,0.007,551
2019-05-22T13:03:57,42.805,6.029,CST-1368DR,9417,13181,15588,0.007,551
2019-05-22T13:06:59,42.805,6.029,CST-1368DR,9417,13183,15590,0.007,551
2019-05-22T13:10:00,42.805,6.029,CST-1368DR,9417,13182,15589,0.007,550
2019-05-22T13:13:02,42.805,6.029,CST-1368DR,9417,13183,15590,0.007,551
2019-05-22T13:16:03,42.805,6.029,CST-1368DR,9417,13183,15590,0.007,551
2019-05-22T13:19:05,42.805,6.029,CST-1368DR,9417,13183,15591,0.006,551
2019-05-22T13:22:06,42.805,6.029,CST-1368DR,9417,13182,15589,0.007,551
2019-05-22T13:25:07,42.805,6.029,CST-1368DR,9417,13182,15589,0.007,551
2019-05-22T13:28:09,42.805,6.029,CST-1368DR,9417,13184,15591,0.006,551
2019-05-22T13:31:10,42.805,6.029,CST-1368DR,9417,13179,15586,0.008,550
2019-05-22T13:34:12,42.805,6.029,CST-1368DR,9417,13183,15590,0.007,551
2019-05-22T13:37:13,42.805,6.029,CST-1368DR,9417,13181,15588,0.007,551
2019-05-22T13:40:14,42.805,6.029,CST-1368DR,9417,13181,15588,0.007,551
2019-05-22T13:43:16,42.805,6.029,CST-1368DR,9417,13182,15589,0.007,550
2019-05-22T13:46:17,42.805,6.029,CST-1368DR,9417,13182,15589,0.007,551
2019-05-22T13:49:19,42.805,6.029,CST-1368DR,9417,13183,15590,0.007,551
2019-05-22T13:52:20,42.805,6.029,CST-1368DR,9417,13182,15588,0.007,551
2019-05-22T13:55:21,42.805,6.029,CST-1368DR,9417,13184,15591,0.006,551
2019-05-22T13:58:23,42.805,6.029,CST-1368DR,9417,13182,15588,0.007,550
2019-05-22T14:01:24,42.805,6.029,CST-1368DR,9417,13182,15589,0.007,551
2019-05-22T14:04:26,42.805,6.029,CST-1368DR,9417,13182,15588,0.007,551
2019-05-22T14:07:27,42.805,6.029,CST-1368DR,9417,13182,15589,0.007,551
2019-05-22T14:10:28,42.805,6.029,CST-1368DR,9417,13183,15590,0.007,551
2019-05-22T14:13:30,42.805,6.029,CST-1368DR,9417,13181,15588,0.007,551
2019-05-22T14:16:31,42.805,6.029,CST-1368DR,9416,13182,15590,0.007,551
2019-05-22T14:19:33,42.805,6.029,CST-1368DR,9416,13180,15588,0.007,551
2019-05-22T14:22:34,42.805,6.029,CST-1368DR,9416,13180,15588,0.007,551
2019-05-22T14:25:36,42.805,6.029,CST-1368DR,9416,13182,15590,0.007,551
2019-05-22T14:28:37,42.805,6.029,CST-1368DR,9416,13182,15590,0.007,551
2019-05-22T14:31:38,42.805,6.029,CST-1368DR,9416,13181,15590,0.007,550
2019-05-22T14:34:40,42.805,6.029,CST-1368DR,9416,13181,15590,0.007,551
2019-05-22T14:37:41,42.805,6.029,CST-1368DR,9416,13180,15588,0.007,551
2019-05-22T14:40:43,42.805,6.029,CST-1368DR,9416,13182,15590,0.007,551
2019-05-22T14:43:44,42.805,6.029,CST-1368DR,9416,13176,15583,0.008,551
2019-05-22T14:46:45,42.805,6.029,CST-1368DR,9416,13177,15584,0.008,551
2019-05-22T14:49:47,42.805,6.029,CST-1368DR,9416,13180,15588,0.007,551
2019-05-22T14:52:48,42.805,6.029,CST-1368DR,9416,13180,15588,0.007,550
2019-05-22T14:55:50,42.805,6.029,CST-1368DR,9416,13181,15589,0.007,551
2019-05-22T14:58:51,42.805,6.029,CST-1368DR,9416,13183,15591,0.006,551
2019-05-22T15:01:52,42.805,6.029,CST-1368DR,9416,13179,15587,0.007,551
2019-05-22T15:04:54,42.805,6.029,CST-1368DR,9416,13181,15590,0.007,550
2019-05-22T15:07:55,42.805,6.029,CST-1368DR,9416,13181,15590,0.007,551
2019-05-22T15:10:57,42.805,6.029,CST-1368DR,9416,13167,15572,0.011,551
2019-05-22T15:13:58,42.805,6.029,CST-1368DR,9416,13176,15583,0.008,551
2019-05-22T15:16:59,42.805,6.029,CST-1368DR,9416,13181,15589,0.007,551
2019-05-22T15:20:01,42.805,6.029,CST-1368DR,9416,13176,15584,0.008,551
2019-05-22T15:23:02,42.805,6.029,CST-1368DR,9416,13181,15589,0.007,551
2019-05-22T15:26:04,42.805,6.029,CST-1368DR,9415,13181,15590,0.007,551
2019-05-22T15:29:05,42.805,6.029,CST-1368DR,9415,13181,15591,0.006,551
2019-05-22T15:32:07,42.805,6.029,CST-1368DR,9415,13181,15590,0.007,551
2019-05-22T15:35:08,42.805,6.029,CST-1368DR,9415,13180,15590,0.007,551
2019-05-22T15:38:09,42.805,6.029,CST-1368DR,9415,13181,15590,0.007,551
2019-05-22T15:41:11,42.805,6.029,CST-1368DR,9415,13179,15589,0.007,551
2019-05-22T15:44:12,42.805,6.029,CST-1368DR,9415,13176,15584,0.008,551
2019-05-22T15:47:14,42.805,6.029,CST-1368DR,9415,13180,15589,0.007,551
2019-05-22T15:50:15,42.805,6.029,CST-1368DR,9415,13181,15591,0.006,551
2019-05-22T15:53:16,42.805,6.029,CST-1368DR,9415,13180,15589,0.007,551
2019-05-22T15:56:18,42.805,6.029,CST-1368DR,9415,13181,15590,0.007,551
2019-05-22T15:59:19,42.805,6.029,CST-1368DR,9415,13179,15589,0.007,551
2019-05-22T16:02:21,42.805,6.029,CST-1368DR,9415,13179,15589,0.007,551
2019-05-22T16:05:22,42.805,6.029,CST-1368DR,9415,13181,15591,0.006,551
2019-05-22T16:08:23,42.805,6.029,CST-1368DR,9414,13137,15541,0.019,550
2019-05-22T16:11:25,42.805,6.029,CST-1368DR,9415,13179,15589,0.007,551
2019-05-22T16:14:26,42.805,6.029,CST-1368DR,9415,13180,15589,0.007,551
2019-05-22T16:17:28,42.805,6.029,CST-1368DR,9415,13178,15587,0.007,551
2019-05-22T16:20:29,42.805,6.029,CST-1368DR,9415,13179,15588,0.007,551
2019-05-22T16:23:31,42.805,6.029,CST-1368DR,9415,13179,15589,0.007,551
2019-05-22T16:26:32,42.805,6.029,CST-1368DR,9414,13179,15590,0.007,551
2019-05-22T16:29:33,42.805,6.029,CST-1368DR,9415,13179,15588,0.007,551
2019-05-22T16:32:35,42.805,6.029,CST-1368DR,9415,13180,15589,0.007,550
2019-05-22T16:35:36,42.805,6.029,CST-1368DR,9414,13177,15588,0.007,551